Home > Weather > Denver > Past weeks

Flag for USA Past Weather in Denver, Colorado, USA — Yesterday and Last 2 Weeks

Now
79 °F

Scattered clouds.


Feels Like: 79 °F
Forecast: 68 / 91 °F
Wind: 21 mph from South

Location: Buckley Air Force Base

Current Time: Jul 25, 2016 at 8:46:25 PM

Latest Report: Jul 25, 2016 at 7:58 PM


Visibility: 10 mi

Pressure: 29.92 "Hg (24.94 "Hg at 1593m altitude)

Humidity: 34%

Dew Point: 49 °F

Location of DenverLocation

Past Weather in Denver — Graph

°F

Denver Temperature Yesterday

Maximum temperature yesterday: 92 °F (at 1:58 PM)
Minimum temperature yesterday: 62 °F (at 11:58 PM)
Average temperature yesterday: 76 °F

High & Low Weather Summary for the Past Weeks

 TemperatureHumidityPressure
High95 °F (Jul 23, 3:58 PM)91% (Jul 15, 11:58 PM)30.21 "Hg (Jul 15, 11:58 PM)
Low56 °F (Jul 14, 5:58 AM)9% (Jul 16, 2:58 PM)29.46 "Hg (Jul 10, 7:58 PM)
Average75 °F43%29.91 "Hg
* Reported Jul 10 7:58 PM — Jul 25 7:58 PM, Denver, Weather by CustomWeather, © 2016

Note: Actual official high and low records may vary slightly from our data, if they occured in-between our weather recording intervals... More about our weather records

Advertising

Denver Weather History for the Previous 24 Hours

Scroll right to see more
 ConditionsComfort  
Time TempWeatherWind HumidityBarometerVisibility
7:58 PM
Mon, Jul 25
79 °FScattered clouds.21 mph34%29.92 "Hg10 mi
6:58 PM80 °FScattered clouds.25 mph30%29.92 "Hg10 mi
5:58 PM89 °FScattered clouds.22 mph24%29.90 "Hg10 mi
4:58 PM91 °FScattered clouds.9 mph26%29.89 "Hg10 mi
3:58 PM93 °FScattered clouds.14 mph26%29.89 "Hg10 mi
2:58 PM93 °FScattered clouds.15 mph28%29.90 "Hg10 mi
1:58 PM93 °FScattered clouds.2 mph14%29.91 "Hg10 mi
12:58 PM92 °FPassing clouds.2 mph19%29.93 "Hg10 mi
11:58 AM88 °FPassing clouds.3 mph27%29.96 "Hg10 mi
10:58 AM81 °FPassing clouds.3 mph38%30.00 "Hg10 mi
9:58 AM77 °FPassing clouds.8 mph46%30.01 "Hg10 mi
8:58 AM72 °FPassing clouds.2 mph54%30.01 "Hg10 mi
7:58 AM66 °FPassing clouds.7 mph68%30.01 "Hg10 mi
6:58 AM62 °FPassing clouds.No wind76%30.01 "Hg10 mi
5:58 AM58 °FPassing clouds.6 mph85%30.03 "Hg10 mi
4:58 AM58 °FPassing clouds.5 mph85%30.01 "Hg10 mi
3:58 AM59 °FPassing clouds.7 mph82%30.01 "Hg10 mi
2:58 AM60 °FClear.9 mph84%30.02 "Hg10 mi
1:58 AM59 °FPassing clouds.12 mph86%30.02 "Hg9 mi
12:58 AM60 °FPassing clouds.9 mph85%30.03 "Hg10 mi
11:58 PM
Sun, Jul 24
62 °FPassing clouds.8 mph81%30.06 "Hg10 mi
10:58 PM63 °FPassing clouds.21 mph77%30.04 "Hg10 mi
9:58 PM65 °FPassing clouds.23 mph69%30.04 "Hg10 mi
8:58 PM69 °FScattered clouds.23 mph60%30.01 "Hg10 mi
Weather by CustomWeather, © 2016

See weather overviewHow to use our weather pages